Location: Unspecified
(40.7945°N, 111.1337°W)
Time: 02:06:21
(UTC-06:00)

Cosmos 2058 - Visible Passes

Search period start: 22 August 2018 00:00
Search period end: 01 September 2018 00:00
Orbit: 564 x 583 km, 82.5° (Epoch: 21 August)

Date Brightness Start Highest point End Pass type
(mag) Time Alt. Az. Time Alt. Az. Time Alt. Az.
22 Aug 4.9 03:16:51 10° N 03:19:09 28° NNE 03:19:09 28° NNE visible
22 Aug 5.3 04:55:04 10° NW 04:55:20 11° NW 04:55:20 11° NW visible
23 Aug 5.0 03:19:52 10° N 03:21:49 26° N 03:21:49 26° N visible
24 Aug 5.1 03:22:57 10° N 03:24:31 22° N 03:24:31 22° N visible
25 Aug 5.3 03:26:05 10° N 03:27:14 18° NNW 03:27:14 18° NNW visible
26 Aug 5.5 03:29:16 10° NNW 03:30:01 15° NNW 03:30:01 15° NNW visible
27 Aug 5.7 03:32:31 10° NNW 03:32:47 12° NNW 03:32:47 12° NNW visible
